[[{"header":{"parameterUnit":"m.s-1","parameterCategory":1,"la1":30.2991,"la2":30.254,"lo1":-89.0895,"lo2":-89.0444,"dy":0.0017,"dx":0.0017,"nx":28,"ny":28,"refTime":"2025-02-09T03:00:00:Z","depth":0,"parameterNumber":2,"parameterNumberName":"U-component_of_WINDS"},"data":[0,0,0,0,0,0,0,0,0,0,0,0,0,0,0,0,0,0,0,0,0,0,0,0,0,0,0,0,0,0,0,0,0,0,0,0,0,0,0,0,0,0,0,0,0,0,0,0,0,0,0,0,0,0,0,0,0,0,0.3414,0.3414,0,0.3456,0.3456,0.3457,0.3496,0.3497,0.3497,0.3498,0.3541,0.3542,0.3542,0,0,0,0,0,0,0,0,0,0,0,0,0,0.337,0.337,0.3414,0.3414,0.3415,0.3456,0.3456,0.3457,0.3496,0.3497,0.3497,0.3498,0.3541,0.3541,0.3542,0,0,0,0,0,0,0,0,0,0,0,0,0,0.3398,0.337,0.3413,0.3439,0.3442,0.3456,0.3456,0.3457,0.3496,0.3497,0.3497,0.3498,0.354,0.3541,0.3542,0.3534,0,0,0.3546,0.3546,0,0,0,0,0,0,0,0,0.3396,0.3399,0.3435,0.3437,0.344,0.3471,0.3457,0.3483,0.3496,0.3475,0.3498,0.3498,0.3517,0.352,0.3526,0.3536,0.3538,0.3546,0.3546,0.3547,0.3547,0,0,0,0,0,0,0,0.3394,0.3398,0.343,0.3435,0.3439,0.3449,0.3454,0.3462,0.3492,0.3477,0.348,0.3485,0.3519,0.3525,0.3528,0.3539,0.3546,0.3547,0.3547,0.3548,0.3547,0.3547,0,0,0,0,0,0,0.3388,0.3396,0.3429,0.3432,0.342,0.345,0.3455,0.3461,0.3492,0.3497,0.3484,0.3486,0.3523,0.3527,0.3529,0.3524,0.3547,0.3548,0.3548,0.3548,0.3547,0.3547,0,0,0,0,0,0,0.3387,0.3391,0.3427,0.3415,0.342,0.345,0.3456,0.3461,0.3468,0.3497,0.3502,0.3485,0.3524,0.3528,0.3534,0.3526,0.3548,0.3549,0.3549,0.3548,0.3547,0.3511,0,0,0,0,0,0,0.3386,0.339,0.3386,0.3414,0.3421,0.343,0.3455,0.3461,0.3469,0.3473,0.3499,0.3504,0.3525,0.3532,0.3535,0.3528,0.355,0.355,0.3548,0.3547,0.3513,0.3509,0.3506,0,0,0,0,0,0.3384,0.3374,0.3386,0.339,0.3417,0.3429,0.3433,0.3456,0.3468,0.3466,0.3485,0.3503,0.3526,0.3532,0.3535,0.3529,0.355,0.3549,0.3547,0.3515,0.351,0.3506,0,0,0,0,0,0,0.3344,0.3378,0.3392,0.339,0.3407,0.3436,0.3433,0.345,0.3463,0.3466,0.3495,0.3501,0.3503,0.3517,0.3522,0.3524,0.3541,0.354,0.3515,0.3511,0.3507,0.3504,0.3551,0,0,0,0,0,0.3335,0.3342,0.3371,0.3367,0.3375,0.3402,0.3409,0.3426,0.3444,0.3451,0.347,0.3487,0.3499,0.3506,0.3517,0.3516,0.3523,0.3513,0.351,0.3506,0.3505,0.3508,0.3505,0.3542,0.3542,0.3542,0,0,0.3316,0.3336,0.3338,0.336,0.3375,0.3382,0.3408,0.3414,0.342,0.3452,0.3459,0.3474,0.3495,0.3498,0.35,0.3509,0.3497,0.3505,0.3502,0.3503,0.3507,0.3503,0.35,0.3541,0.3541,0.3541,0,0,0.3287,0.3301,0.3301,0.3316,0.3338,0.3357,0.3357,0.3384,0.3395,0.3403,0.3428,0.3436,0.3454,0.3469,0.3479,0.3459,0.3477,0.3462,0.3442,0.3445,0.3442,0.3439,0.3434,0.3431,0.3461,0.3461,0.346,0,0.3261,0.3272,0.3298,0.3304,0.3314,0.3344,0.3345,0.3358,0.3382,0.3389,0.3399,0.3425,0.3441,0.3449,0.3444,0.3451,0.3453,0.3459,0.344,0.3438,0.3436,0.3431,0.3429,0.3459,0.3459,0.3459,0.3459,0,0.324,0.3248,0.3246,0.327,0.3279,0.3282,0.331,0.3317,0.3334,0.3352,0.3361,0.3382,0.34,0.3404,0.342,0.3415,0.342,0.3434,0.3452,0.343,0.3426,0.3424,0.3456,0.3457,0.3457,0.3458,0,0,0.3185,0.3225,0.3224,0.3237,0.3265,0.3272,0.3277,0.3296,0.3302,0.3319,0.3325,0.3342,0.3356,0.3368,0.3386,0.3388,0.3374,0.3403,0.3404,0.3398,0.3372,0.3361,0.3358,0.3386,0.3386,0.3386,0.3371,0,0.316,0.3172,0.3197,0.32,0.321,0.324,0.3245,0.3264,0.3282,0.3293,0.3313,0.3325,0.3342,0.335,0.3353,0.3375,0.3369,0.3376,0.3394,0.3394,0.3388,0.3356,0.3344,0.3329,0.3369,0.3369,0.3369,0,0.3133,0.3149,0.3154,0.3184,0.3189,0.3193,0.3213,0.3223,0.3246,0.3259,0.3273,0.3295,0.3304,0.332,0.3335,0.3339,0.3348,0.336,0.336,0.3363,0.338,0.3359,0.3324,0.3322,0.3366,0.3366,0.3366,0,0.3094,0.3117,0.3123,0.3133,0.3168,0.3171,0.3185,0.3209,0.3219,0.3237,0.3245,0.3263,0.3274,0.3288,0.3315,0.3324,0.3327,0.3345,0.334,0.3339,0.3339,0.3339,0.3306,0.3343,0.3343,0.3343,0.3343,0,0.3064,0.3066,0.3107,0.311,0.3115,0.3145,0.3148,0.3166,0.3187,0.3197,0.3224,0.3232,0.3267,0.3279,0.33,0.331,0.3315,0.3327,0.3332,0.3324,0.3323,0.3331,0.3333,0.3343,0.3343,0.3343,0.3343,0,0.302,0.3047,0.3057,0.309,0.3099,0.3101,0.313,0.3136,0.3156,0.3168,0.3172,0.3205,0.3222,0.325,0.3274,0.3289,0.3296,0.3304,0.3288,0.3291,0.3285,0.3286,0.3257,0.3255,0.3292,0.3292,0.3292,0,0.3,0.3003,0.3037,0.3045,0.3059,0.3072,0.3083,0.3114,0.3124,0.3153,0.3156,0.3175,0.3192,0.3218,0.3244,0.3264,0.3274,0.3263,0.3277,0.327,0.3276,0.3276,0.3277,0.3259,0.3259,0.3258,0.3258,0,0.2961,0.2975,0.299,0.301,0.3023,0.3041,0.3059,0.3065,0.31,0.3111,0.3129,0.3142,0.3169,0.3188,0.3213,0.3229,0.325,0.3254,0.3254,0.3246,0.3237,0.3243,0.328,0.3254,0.3254,0.3255,0.3255,0.3255,0.293,0.2934,0.296,0.2976,0.2994,0.3012,0.302,0.3043,0.3058,0.3082,0.31,0.3117,0.3143,0.3178,0.3194,0.3209,0.3218,0.3217,0.3217,0.3217,0.3215,0.3234,0.3213,0.3213,0.3213,0.3213,0.3214,0,0.2894,0.2912,0.2927,0.2953,0.2967,0.2986,0.3009,0.3019,0.3034,0.3056,0.3073,0.3095,0.3115,0.3144,0.3167,0.3173,0.3184,0.3178,0.3178,0.3182,0.3205,0.3203,0.317,0.317,0.317,0.317,0.317,0.317,0.2876,0.2886,0.2904,0.2924,0.2943,0.296,0.2971,0.2989,0.3007,0.3031,0.3047,0.3066,0.3092,0.3118,0.3137,0.3146,0.3153,0.3145,0.3156,0.3176,0.318,0.3184,0.3183,0.3146,0.3146,0.3133,0.3133,0.3133]},{"header":{"parameterUnit":"m.s-1","parameterCategory":1,"la1":30.2991,"la2":30.254,"lo1":-89.0895,"lo2":-89.0444,"dy":0.0017,"dx":0.0017,"nx":28,"ny":28,"refTime":"2025-02-09T03:00:00:Z","depth":0,"parameterNumber":3,"parameterNumberName":"V-component_of_WINDS"},"data":[0,0,0,0,0,0,0,0,0,0,0,0,0,0,0,0,0,0,0,0,0,0,0,0,0,0,0,0,0,0,0,0,0,0,0,0,0,0,0,0,0,0,0,0,0,0,0,0,0,0,0,0,0,0,0,0,0,0,1.4305,1.4306,0,1.4436,1.4437,1.4439,1.4485,1.4484,1.4484,1.4483,1.4619,1.4623,1.4627,0,0,0,0,0,0,0,0,0,0,0,0,0,1.4098,1.4102,1.4305,1.4306,1.4308,1.4435,1.4437,1.4439,1.4485,1.4484,1.4484,1.4483,1.4617,1.4622,1.4627,0,0,0,0,0,0,0,0,0,0,0,0,0,1.4204,1.4103,1.4305,1.4346,1.4351,1.4435,1.4437,1.4439,1.4485,1.4484,1.4484,1.4483,1.4616,1.4622,1.4628,1.468,0,0,1.4646,1.4649,0,0,0,0,0,0,0,0,1.4198,1.4212,1.4339,1.4344,1.4349,1.4443,1.4414,1.452,1.4485,1.4434,1.4483,1.4483,1.4561,1.4571,1.4598,1.4686,1.4692,1.4647,1.465,1.4653,1.4655,0,0,0,0,0,0,0,1.4191,1.4207,1.4357,1.434,1.4347,1.436,1.4374,1.4434,1.45,1.4439,1.4442,1.4457,1.4564,1.4592,1.4601,1.4694,1.4647,1.4652,1.4656,1.4658,1.4834,1.4835,0,0,0,0,0,0,1.4176,1.42,1.4352,1.4361,1.4271,1.4364,1.438,1.4414,1.45,1.4512,1.4458,1.4459,1.4582,1.4594,1.4606,1.4675,1.4653,1.4659,1.4662,1.4833,1.4835,1.4836,0,0,0,0,0,0,1.4172,1.4189,1.4347,1.4281,1.4302,1.4368,1.4406,1.4417,1.4445,1.4514,1.4526,1.4474,1.4582,1.4597,1.4662,1.468,1.4661,1.4667,1.4832,1.4834,1.4835,1.4811,0,0,0,0,0,0,1.4166,1.4187,1.4207,1.4282,1.4306,1.4399,1.4407,1.442,1.4455,1.4458,1.4532,1.4544,1.4582,1.4652,1.4668,1.4688,1.4672,1.4831,1.4833,1.4835,1.481,1.4811,1.4812,0,0,0,0,0,1.4158,1.4195,1.4208,1.4226,1.4331,1.44,1.4414,1.4457,1.4456,1.4477,1.4522,1.4542,1.4675,1.4658,1.4676,1.4699,1.483,1.4832,1.4835,1.481,1.4811,1.4812,0,0,0,0,0,0,1.412,1.4205,1.422,1.4282,1.4334,1.4408,1.4436,1.4457,1.451,1.451,1.4562,1.4578,1.4639,1.4675,1.4655,1.4755,1.4754,1.476,1.4729,1.4731,1.4732,1.4722,1.4677,0,0,0,0,0,1.4119,1.4167,1.4239,1.4286,1.4312,1.4369,1.4401,1.4429,1.4485,1.4507,1.4557,1.4611,1.4665,1.47,1.4753,1.4816,1.4834,1.484,1.4841,1.4841,1.4846,1.4885,1.4889,1.4843,1.4843,1.4843,0,0,1.4117,1.417,1.4197,1.428,1.4324,1.4374,1.4387,1.4439,1.4477,1.4515,1.4579,1.4617,1.4681,1.4745,1.4776,1.4777,1.4863,1.4844,1.4844,1.4849,1.4887,1.4892,1.4895,1.4845,1.4845,1.4844,0,0,1.414,1.4183,1.4229,1.4272,1.4338,1.4376,1.4387,1.4459,1.4486,1.4551,1.4582,1.4628,1.472,1.4765,1.48,1.4842,1.4863,1.4858,1.4863,1.49,1.4904,1.4907,1.4924,1.4929,1.4862,1.4862,1.4862,0,1.413,1.4205,1.425,1.4301,1.4338,1.4375,1.4422,1.4462,1.4542,1.4568,1.4568,1.4686,1.4731,1.4807,1.4818,1.4844,1.486,1.485,1.4899,1.4903,1.4907,1.4924,1.493,1.4861,1.4862,1.4862,1.4862,0,1.419,1.4243,1.4272,1.4348,1.4389,1.4437,1.4491,1.4526,1.4552,1.459,1.4658,1.4713,1.478,1.48,1.4825,1.4881,1.488,1.4889,1.4889,1.491,1.4927,1.4933,1.486,1.486,1.4861,1.4861,0,0,1.4192,1.4294,1.4304,1.4341,1.4417,1.4459,1.451,1.4576,1.4606,1.466,1.4706,1.4784,1.4794,1.4833,1.4864,1.4896,1.4929,1.4902,1.4904,1.4906,1.4996,1.499,1.4996,1.4943,1.4944,1.4945,1.4991,0,1.4226,1.4319,1.4362,1.4437,1.4487,1.4524,1.4569,1.4622,1.466,1.4709,1.4751,1.4806,1.4813,1.4838,1.4871,1.4917,1.4948,1.4915,1.4988,1.499,1.4972,1.5005,1.4998,1.5039,1.4998,1.4999,1.5,0,1.4278,1.4333,1.4412,1.4485,1.4508,1.4547,1.4612,1.4658,1.4719,1.4745,1.479,1.482,1.4877,1.4873,1.4954,1.4931,1.4963,1.4991,1.4993,1.5003,1.4997,1.5017,1.5053,1.506,1.501,1.501,1.5009,0,1.4273,1.4367,1.4428,1.4458,1.4543,1.4571,1.4608,1.4668,1.4706,1.4762,1.4788,1.485,1.4885,1.4933,1.498,1.4972,1.5058,1.5056,1.5082,1.5081,1.5099,1.5098,1.5142,1.5117,1.5117,1.5117,1.5117,0,1.4307,1.4355,1.4428,1.4465,1.452,1.457,1.4624,1.4663,1.4717,1.4764,1.48,1.4843,1.4902,1.4953,1.499,1.5053,1.5068,1.5092,1.5101,1.5089,1.5087,1.5112,1.5111,1.5119,1.5118,1.5118,1.5118,0,1.4312,1.4362,1.4431,1.4507,1.4527,1.4565,1.4631,1.4669,1.471,1.4769,1.4786,1.4849,1.4912,1.4963,1.5045,1.507,1.5136,1.5146,1.5115,1.5121,1.5144,1.5142,1.5208,1.5221,1.5185,1.5185,1.5186,0,1.4331,1.4369,1.4449,1.4484,1.452,1.4574,1.4613,1.4664,1.4703,1.4777,1.4807,1.4872,1.4927,1.5026,1.508,1.5143,1.5156,1.5175,1.5166,1.5154,1.5159,1.5157,1.5162,1.5176,1.5176,1.5176,1.5177,0,1.436,1.4384,1.4438,1.4502,1.4547,1.46,1.4653,1.4679,1.474,1.4783,1.4847,1.489,1.4974,1.504,1.5109,1.5149,1.5174,1.5179,1.5189,1.5178,1.5159,1.5172,1.512,1.5177,1.5177,1.5177,1.5177,1.5177,1.4374,1.4411,1.4474,1.4534,1.458,1.4629,1.467,1.4716,1.4771,1.4843,1.487,1.4937,1.5,1.5096,1.5136,1.519,1.5193,1.5206,1.521,1.5213,1.5212,1.5149,1.5203,1.5203,1.5203,1.5203,1.5203,0,1.4407,1.445,1.4505,1.4579,1.4627,1.4646,1.4707,1.4746,1.4804,1.486,1.4914,1.499,1.5054,1.5113,1.5181,1.5213,1.5226,1.5229,1.5228,1.5237,1.5205,1.5191,1.5217,1.5217,1.5217,1.5217,1.5217,1.5217,1.443,1.4493,1.4525,1.4612,1.4655,1.4721,1.4754,1.4801,1.4847,1.4929,1.4983,1.5021,1.508,1.5152,1.5212,1.5228,1.5252,1.5252,1.5272,1.5241,1.5239,1.5237,1.5224,1.5257,1.5257,1.53,1.53,1.53]}]]